User: anonymous   Login
Location: Nickerson Gardens
(33.9320°N, 118.2484°W)
Time: 10:36:13
(UTC+00:00)
Language:

CAS-4A - Orbit

View from above orbital plane
View from above orbital plane
View from above satellite
View from above satellite

Ground track
Ground track

The orbit data is extracted from the following two-line orbital elements,

1 42761U 17034D   21102.68620227  .00000405  00000-0  37640-4 0  9997
2 42761  43.0173 181.7315 0008086 114.2546  17.8854 15.10231469211202
Epoch (UTC): 12 April 2021 16:28:07
Eccentricity: 0.0008086
inclination: 43.0173°
perigee height: 530 km
apogee height: 541 km
right ascension of ascending node: 181.7315°
argument of perigee: 114.2546°
revolutions per day: 15.10231469
mean anomaly at epoch: 17.8854°
orbit number at epoch: 21120

The dashed part of the orbit path shows where the satellite is in the earth's shadow,  

DLR